Location: Kalberh�ni
(46.4610°N, 7.2453°E)
Time: 02:43:18
(UTC+00:00)

Thor Agena Rocket - Pass Details

Date: 20 June 2021
Orbit: 759 x 808 km, 99.0° (Epoch: 25 July)

Event Time Altitude Azimuth Distance (km) Brightness Sun altitude
Rises 23:00:42 0° 20° (NNE) 3,318 7.9 -19.7°
Reaches altitude 10° 23:03:10 10° 27° (NNE) 2,376 6.8 -19.8°
Maximum altitude 23:08:10 44° 99° (E) 1,077 4.1 -19.9°
Enters shadow 23:09:44 35° 142° (SE) 1,261 4.2 -19.9°
